Stations météo

Publicité
Bonn-Roleber, Allemagne (10519): Température de l'air & dewpoint: 15.01.2018 04:00:00 - 21.01.2018 04:00:00 (CET)Bonn-Roleber, Allemagne (10519): Température de l'air 5cm & Température de l'air -5cm: 15.01.2018 04:00:00 - 21.01.2018 04:00:00 (CET)Bonn-Roleber, Allemagne (10519): Température de l'air -20cm & Température de l'air -100cm: 15.01.2018 04:00:00 - 21.01.2018 04:00:00 (CET)Bonn-Roleber, Allemagne (10519): Vitesse du vent & gusts: 15.01.2018 04:00:00 - 21.01.2018 04:00:00 (CET)Bonn-Roleber, Allemagne (10519): Direction du vent: 15.01.2018 04:00:00 - 21.01.2018 04:00:00 (CET)Bonn-Roleber, Allemagne (10519): reduced air pressure: 15.01.2018 04:00:00 - 21.01.2018 04:00:00 (CET)Bonn-Roleber, Allemagne (10519): visibility: 15.01.2018 04:00:00 - 21.01.2018 04:00:00 (CET)Bonn-Roleber, Allemagne (10519): Ensoleillement: 15.01.2018 04:00:00 - 21.01.2018 04:00:00 (CET)Bonn-Roleber, Allemagne (10519): Quantités de précipitations: 15.01.2018 04:00:00 - 21.01.2018 04:00:00 (CET)
Date & Time tt [°C] td [°C] tt 5cm [°C] tt -5cm [°C] tt -20cm [°C] tt -100cm [°C] ff [km/h] ff [knt] fx [km/h] fx [knt] dd ppp [hPa] vv [km] sd [min] rr [mm]
21.01.2018 04:00:00 0,9 0,7 0,5 2,0 2,9 6,5 13 7 31 17 WNW 1008,5 1,1 0 0,6
21.01.2018 03:00:00 1,8 1,7 1,7 2,1 2,9 6,5 14 8 32 18 WNW 1007,2 2,5 0 0,0
21.01.2018 02:00:00 1,7 1,6 1,6 2,1 2,9 6,5 14 8 26 14 WNW 1005,6 1,4 0 0,1
21.01.2018 01:00:00 1,8 1,7 1,7 2,1 2,9 6,5 12 6 27 15 WNW 1004,4 1,1 0 0,0
21.01.2018 00:00:00 1,6 1,5 1,5 2,1 2,9 6,5 11 6 20 11 WNW 1003,1 1,6 0 0,1
20.01.2018 23:00:00 1,4 1,2 1,3 2,0 2,9 6,5 13 7 22 12 WNW 1001,9 1,9 0 0,1
20.01.2018 22:00:00 1,4 1,3 1,3 2,1 2,9 6,5 5 3 10 5 WSW 1001,2 3,3 0 0,1
20.01.2018 21:00:00 1,4 1,2 1,3 2,1 2,9 6,5 4 2 6 3 SSW 1000,6 4,5 0 0,1
20.01.2018 20:00:00 1,3 1,1 1,2 2,1 3,0 6,6 4 2 12 6 ESE 1000,0 8 0 0,1
20.01.2018 19:00:00 1,2 0,8 1,1 2,2 3,0 6,6 6 3 13 7 E 999,7 8 0 0,2
20.01.2018 18:00:00 1,1 0,9 1,0 2,3 3,0 6,6 8 5 14 7 E 999,4 9 0 0,6
20.01.2018 17:00:00 1,4 1,0 1,2 2,6 2,9 6,6 9 5 16 8 ESE 1000,0 7 0 0,7
20.01.2018 16:00:00 1,9 1,5 1,8 2,8 2,8 6,6 9 5 22 12 ESE 1000,6 10 0 0,7
20.01.2018 15:00:00 2,3 1,4 2,1 3,0 2,7 6,6 14 8 25 13 SSE 1001,4 9 0 0,9
20.01.2018 14:00:00 3,2 1,6 2,8 3,1 2,5 6,6 13 7 22 12 S 1002,6 11 0 0,3
20.01.2018 13:00:00 3,7 1,0 3,2 2,8 2,3 6,6 13 7 22 12 S 1004,3 12 0 0,0
20.01.2018 12:00:00 3,7 0,5 3,4 2,0 2,2 6,6 13 7 28 15 S 1005,6 36 0 0,0
20.01.2018 11:00:00 3,3 -0,1 3,2 1,1 2,2 6,6 17 9 29 15 S 1006,7 50 1 0,0
20.01.2018 10:00:00 2,6 -0,6 1,6 0,5 2,2 6,6 13 7 26 14 S 1007,6 49 10 0,0
20.01.2018 09:00:00 2,4 -0,7 0,7 0,5 2,3 6,6 11 6 23 13 S 1008,4 48 0 0,0
20.01.2018 08:00:00 1,8 -0,7 -0,2 0,5 2,4 6,6 12 6 22 12 SSW 1008,7 57 0 0,0
20.01.2018 07:00:00 1,8 -0,5 1,0 0,5 2,5 6,6 13 7 20 11 SSW 1009,1 62 0 0,0
20.01.2018 06:00:00 1,2 -0,6 -0,9 0,5 2,5 6,6 11 6 19 10 SSW 1009,5 53 0 0,0
20.01.2018 05:00:00 1,4 -0,5 -0,2 0,6 2,6 6,6 10 5 16 9 SSW 1009,9 58 0 0,0
20.01.2018 04:00:00 1,7 -0,5 0,5 0,8 2,7 6,6 9 5 21 11 SW 1010,6 62 0 0,0
20.01.2018 03:00:00 2,0 -0,6 0,7 0,7 2,8 6,6 14 7 24 13 SSW 1010,5 52 0 0,0
20.01.2018 02:00:00 1,9 -0,4 1,0 0,8 3,0 6,6 11 6 20 11 SSW 1011,0 37 0 0,0
20.01.2018 01:00:00 1,6 -0,4 0,7 0,7 3,2 6,6 12 7 18 10 SSW 1011,2 34 0 0,0
20.01.2018 00:00:00 1,3 -0,9 -0,5 0,8 3,4 6,6 13 7 17 9 SSW 1011,2 31 0 0,0
19.01.2018 23:00:00 1,4 -1,0 -1,0 1,3 3,5 6,6 10 5 21 11 SSW 1011,3 40 0 0,0
19.01.2018 22:00:00 2,3 -0,7 1,6 1,9 3,7 6,6 13 7 22 12 SSW 1010,9 41 0 0,0
19.01.2018 21:00:00 2,2 -0,5 0,9 2,1 3,8 6,6 10 5 17 9 SSW 1010,8 36 0 0,0
19.01.2018 20:00:00 2,3 -0,8 0,2 2,4 3,9 6,6 9 5 16 9 SW 1010,7 47 0 0,0
19.01.2018 19:00:00 3,3 -0,6 1,7 3,1 4,0 6,6 7 4 13 7 SW 1010,4 48 0 0,0
19.01.2018 18:00:00 3,9 -0,8 3,1 3,3 4,1 6,6 6 4 13 7 SW 1010,3 63 0 0,0
19.01.2018 17:00:00 4,6 -1,3 3,8 3,9 4,1 6,6 7 4 21 11 W 1010,3 68 13 0,0
19.01.2018 16:00:00 5,2 -1,9 3,8 5,1 3,9 6,6 9 5 29 15 W 1010,0 69 44 0,0
19.01.2018 15:00:00 5,3 -1,5 5,7 6,0 3,6 6,6 14 7 34 18 W 1010,2 68 50 0,0
19.01.2018 14:00:00 4,7 -1,4 4,9 5,0 3,4 6,6 16 9 31 17 WSW 1010,2 70 28 0,0
19.01.2018 13:00:00 4,8 0,1 5,4 3,9 3,3 6,6 11 6 31 17 WSW 1010,4 53 1 0,0
19.01.2018 12:00:00 4,3 0,6 4,3 3,3 3,2 6,6 11 6 27 14 W 1010,6 42 0 0,0
19.01.2018 11:00:00 3,4 1,0 3,5 2,4 3,2 6,6 9 5 31 17 W 1010,3 28 5 0,0
19.01.2018 10:00:00 2,9 1,4 2,4 2,4 3,2 6,6 13 7 27 15 W 1009,7 16 0 0,0
19.01.2018 09:00:00 2,4 1,3 2,0 2,2 3,2 6,6 13 7 29 15 W 1008,8 6 0 0,0
19.01.2018 08:00:00 2,6 1,4 2,0 2,2 3,2 6,6 14 8 31 17 W 1007,7 17 0 0,0
19.01.2018 07:00:00 2,3 1,6 1,8 2,2 3,3 6,6 14 8 30 16 W 1006,8 10 0 0,0
19.01.2018 06:00:00 2,3 1,7 1,7 2,1 3,3 6,6 9 5 37 20 SW 1006,2 11 0 1,1
19.01.2018 05:00:00 2,6 1,7 2,2 2,3 3,3 6,6 8 4 20 11 W 1005,9 7 0 0,0
19.01.2018 04:00:00 2,5 1,7 1,9 2,2 3,4 6,7 9 5 25 14 SW 1005,2 36 0 0,1
19.01.2018 03:00:00 2,0 1,3 1,5 2,2 3,5 6,7 9 5 23 12 SW 1004,9 20 0 0,2
19.01.2018 02:00:00 1,5 1,2 1,2 2,2 3,6 6,7 9 5 21 11 SW 1004,4 13 0 0,1
19.01.2018 01:00:00 1,5 1,2 1,3 2,5 3,7 6,7 10 6 29 16 SW 1003,9 8 0 3,8
19.01.2018 00:00:00 3,6 1,9 2,7 2,9 3,7 6,7 6 3 11 6 WSW 1003,4 9 0 0,2
18.01.2018 23:00:00 3,8 1,5 3,0 2,8 3,8 6,7 6 4 11 6 SW 1003,4 47 0 0,0
18.01.2018 22:00:00 4,1 0,9 3,3 2,6 3,9 6,7 5 3 16 8 WSW 1003,3 51 0 0,0
18.01.2018 21:00:00 3,9 0,9 2,6 2,7 4,0 6,7 7 4 14 8 SW 1003,5 50 0 0,0
18.01.2018 20:00:00 3,9 1,4 1,9 3,0 4,1 6,7 6 4 17 9 W 1003,3 48 0 0,0
18.01.2018 19:00:00 4,5 1,3 3,8 3,2 4,3 6,8 9 5 27 15 W 1003,0 55 0 0,0
18.01.2018 18:00:00 5,0 1,0 4,0 3,8 4,4 6,8 16 9 34 18 W 1002,8 70 0 0,0
18.01.2018 17:00:00 5,9 0,7 5,2 4,5 4,4 6,8 16 9 49 27 WNW 1002,2 62 21 0,0
18.01.2018 16:00:00 6,4 -0,2 5,5 5,5 4,2 6,8 26 14 69 37 W 1001,4 70 47 0,0
18.01.2018 15:00:00 7,5 -0,2 8,4 6,2 4,0 6,8 29 16 71 38 W 1000,4 59 52 0,0
18.01.2018 14:00:00 6,9 0,1 6,4 6,1 3,7 6,8 34 18 77 42 W 999,3 55 35 0,0
18.01.2018 13:00:00 8,6 -0,2 9,5 6,1 3,4 6,8 41 22 81 44 W 997,1 32 36 0,0
18.01.2018 12:00:00 10,5 0,6 11,2 5,5 3,1 6,8 47 26 102 55 W 994,1 30 24 0,0
18.01.2018 11:00:00 11,0 2,9 10,7 4,7 2,8 6,8 29 16 79 43 W 992,4 43 20 0,0
18.01.2018 10:00:00 8,9 4,7 7,6 3,3 2,6 6,8 19 10 47 26 WSW 992,9 70 0 0,1
18.01.2018 09:00:00 5,7 3,3 4,5 2,7 2,5 6,8 27 15 56 31 SSW 993,7 9 0 0,0
18.01.2018 08:00:00 4,9 1,7 4,3 2,3 2,4 6,9 32 18 67 36 SSW 994,7 70 0 0,0
18.01.2018 07:00:00 4,4 1,2 3,7 2,1 2,3 6,9 27 14 70 38 SSW 996,5 70 0 0,0
18.01.2018 06:00:00 3,5 1,7 2,5 1,9 2,3 6,9 24 13 40 22 S 998,3 57 0 0,3
18.01.2018 05:00:00 4,0 0,9 3,1 1,6 2,2 6,9 18 10 35 19 S 1001,7 41 0 0,0
18.01.2018 04:00:00 3,5 0,8 2,7 1,3 2,2 6,9 17 9 34 18 SSW 1004,8 46 0 0,0
18.01.2018 03:00:00 2,9 0,6 2,1 1,1 2,1 6,9 19 10 33 18 SSW 1006,5 31 0 0,0
18.01.2018 02:00:00 3,8 -0,2 2,6 0,9 2,1 6,9 12 7 24 13 SW 1007,7 34 0 0,0
18.01.2018 01:00:00 4,0 -0,5 3,0 0,8 2,2 6,9 12 7 33 18 WSW 1008,7 31 0 0,0
18.01.2018 00:00:00 3,6 -0,3 2,3 0,6 2,2 6,9 11 6 29 15 WSW 1008,9 28 0 0,0
17.01.2018 23:00:00 3,7 -0,8 2,3 0,6 2,2 6,9 13 7 25 14 WSW 1009,3 26 0 0,0
17.01.2018 22:00:00 3,5 -0,8 2,2 0,6 2,3 6,9 11 6 26 14 WSW 1009,0 28 0 0,0
17.01.2018 21:00:00 3,2 -1,1 1,5 0,7 2,3 6,9 9 5 27 15 W 1009,0 38 0 0,0
17.01.2018 20:00:00 3,6 -1,0 2,7 1,1 2,3 6,9 14 8 31 17 W 1008,9 41 0 0,0
17.01.2018 19:00:00 3,0 0,1 2,4 1,1 2,3 6,9 12 7 41 22 W 1008,5 19 0 0,0
17.01.2018 18:00:00 3,4 -0,3 2,7 0,9 2,3 6,9 16 9 38 20 W 1007,5 36 0 0,0
17.01.2018 17:00:00 2,9 0,2 1,4 0,9 2,4 6,9 21 11 49 26 W 1006,6 34 0 0,0
17.01.2018 16:00:00 3,5 -0,2 2,8 0,6 2,4 6,9 18 10 59 32 W 1005,2 37 24 0,0
17.01.2018 15:00:00 3,6 0,0 2,8 0,6 2,5 7,0 19 11 50 27 W 1004,2 32 27 0,1
17.01.2018 14:00:00 2,2 0,3 0,9 0,6 2,6 7,0 20 11 46 25 W 1003,8 27 0 0,0
17.01.2018 13:00:00 1,4 0,4 0,0 0,6 2,6 7,0 13 7 41 22 W 1003,2 21 0 0,3
17.01.2018 12:00:00 0,5 0,1 0,0 0,7 2,7 7,0 10 5 30 16 W 1003,2 8 0 0,6
17.01.2018 11:00:00 0,8 -0,3 0,0 0,7 2,8 7,0 16 9 36 20 W 1002,4 24 3 0,0
17.01.2018 10:00:00 0,1 -0,4 -0,2 0,7 2,9 7,0 12 6 27 15 W 1001,2 31 6 0,9
17.01.2018 09:00:00 0,0 0,0 -0,1 0,8 3,0 7,0 22 12 43 23 WNW 1000,2 0,2 0 0,5
17.01.2018 08:00:00 -0,2 -0,2 -0,9 0,8 3,1 7,0 9 5 51 27 W 998,6 39 0 1,7
17.01.2018 07:00:00 0,1 0,0 0,0 1,0 3,2 7,0 20 11 69 38 WNW 997,3 0,7 0 1,6
17.01.2018 06:00:00 2,7 -1,1 1,7 1,4 3,3 7,0 17 9 32 18 W 995,6 53 0 0,0
17.01.2018 05:00:00 3,3 -0,5 2,2 2,0 3,3 7,0 16 9 32 18 W 995,0 54 0 0,0
17.01.2018 04:00:00 3,2 0,2 2,4 2,0 3,4 7,0 14 8 39 21 W 994,6 68 0 0,1
17.01.2018 03:00:00 3,1 0,4 2,3 1,9 3,4 7,0 11 6 25 14 SW 994,2 70 0 0,0
17.01.2018 02:00:00 3,0 0,8 1,8 1,9 3,5 7,0 13 7 27 15 SSW 994,0 70 0 0,0
17.01.2018 01:00:00 2,4 0,7 1,0 1,8 3,6 7,0 6 3 27 15 SSW 994,8 51 0 0,0
17.01.2018 00:00:00 2,3 0,2 0,3 1,6 3,7 7,0 9 5 13 7 SSW 995,3 42 0 0,0
16.01.2018 23:00:00 2,2 0,4 0,5 1,9 3,9 7,0 10 5 21 11 SSW 995,7 34 0 0,0
16.01.2018 22:00:00 1,7 0,6 0,8 2,0 4,0 7,0 9 5 19 11 S 996,2 21 0 0,0
16.01.2018 21:00:00 2,2 0,7 0,9 2,4 4,2 7,0 8 5 36 20 W 996,2 39 0 0,3
16.01.2018 20:00:00 2,2 0,8 1,5 2,5 4,4 7,0 14 8 36 20 W 996,6 39 0 0,2
16.01.2018 19:00:00 1,9 1,2 1,1 2,6 4,5 7,1 8 4 42 23 W 996,1 15 0 1,7
16.01.2018 18:00:00 3,4 0,6 2,3 3,4 4,7 7,1 15 8 34 19 WSW 996,2 31 0 0,1
16.01.2018 17:00:00 3,6 0,2 2,7 3,9 4,8 7,1 15 8 33 18 WNW 996,4 58 6 0,0
16.01.2018 16:00:00 3,2 0,7 2,0 4,7 4,7 7,1 6 4 34 19 NW 995,9 50 20 0,0
16.01.2018 15:00:00 3,8 1,6 3,4 5,9 4,5 7,1 9 5 35 19 NW 995,1 34 28 0,1
16.01.2018 14:00:00 6,8 1,8 6,9 5,8 4,4 7,1 20 11 56 31 W 994,9 51 24 0,0
16.01.2018 13:00:00 4,9 1,4 3,3 4,5 4,2 7,1 20 11 62 33 W 994,9 56 0 0,2
16.01.2018 12:00:00 7,2 2,5 6,8 5,1 4,1 7,1 19 10 41 22 W 993,8 61 3 0,2
16.01.2018 11:00:00 6,3 3,5 5,1 4,2 4,0 7,1 11 6 33 18 WSW 993,8 21 0 0,0
16.01.2018 10:00:00 5,5 3,3 4,2 3,4 4,0 7,1 13 7 27 15 SW 993,8 70 7 0,0
16.01.2018 09:00:00 5,4 2,9 3,7 3,4 4,1 7,1 12 7 28 15 WSW 993,5 70 0 0,0
16.01.2018 08:00:00 5,1 3,7 3,8 3,3 4,1 7,1 9 5 22 12 SW 993,5 69 0 0,0
16.01.2018 07:00:00 4,4 3,8 3,4 3,6 4,1 7,1 9 5 22 12 SW 993,6 49 0 0,6
16.01.2018 06:00:00 4,0 3,4 3,5 3,8 4,1 7,2 14 7 29 16 W 994,4 3,9 0 1,2
16.01.2018 05:00:00 5,4 3,1 4,3 3,6 4,2 7,2 13 7 23 12 SW 994,7 31 0 0,0
16.01.2018 04:00:00 4,9 3,4 3,6 3,9 4,1 7,2 11 6 30 16 SW 995,3 70 0 0,0
16.01.2018 03:00:00 5,3 3,4 4,5 4,2 4,1 7,2 11 6 47 25 W 995,9 70 0 0,3
16.01.2018 02:00:00 5,7 5,1 5,2 4,4 4,0 7,2 15 8 43 23 W 995,9 9 0 1,6
16.01.2018 01:00:00 6,4 5,1 5,5 4,2 3,9 7,2 13 7 29 16 W 995,4 1,1 0 0,0
16.01.2018 00:00:00 6,2 4,3 5,0 4,0 3,9 7,2 15 8 41 22 SSW 995,0 25 0 0,0
15.01.2018 23:00:00 5,9 3,4 4,5 3,9 3,8 7,2 27 15 48 26 SSW 995,1 16 0 0,3
15.01.2018 22:00:00 6,1 2,3 5,5 3,7 3,7 7,2 31 17 56 31 SSW 995,0 70 0 0,0
15.01.2018 21:00:00 6,0 2,0 5,4 3,8 3,7 7,2 32 17 55 30 S 996,0 70 0 0,0
15.01.2018 20:00:00 5,8 2,7 5,2 3,8 3,6 7,2 26 14 53 29 S 996,9 70 0 0,0
15.01.2018 19:00:00 6,0 2,8 5,3 3,7 3,5 7,3 32 17 60 33 S 997,9 50 0 0,0
15.01.2018 18:00:00 6,3 2,4 5,5 3,7 3,4 7,3 26 14 48 26 S 999,9 51 0 0,0
15.01.2018 17:00:00 5,9 2,6 5,1 3,7 3,3 7,3 24 13 48 26 SSE 1002,0 50 0 0,1
15.01.2018 16:00:00 6,0 2,7 4,6 3,7 3,1 7,3 22 12 36 20 S 1003,9 25 0 0,2
15.01.2018 15:00:00 6,0 2,3 5,5 3,6 2,9 7,3 19 10 41 22 S 1005,2 29 0 0,0
15.01.2018 14:00:00 6,1 2,2 5,7 3,5 2,6 7,3 22 12 37 20 S 1007,3 22 0 0,0
15.01.2018 13:00:00 5,2 2,1 5,1 3,0 2,4 7,3 17 9 29 15 SSE 1009,8 15 0 0,0
15.01.2018 12:00:00 5,2 2,3 5,4 2,1 2,3 7,3 18 10 31 17 SSE 1011,3 13 0 0,0
15.01.2018 11:00:00 4,9 1,5 4,5 0,6 2,3 7,3 13 7 27 15 SSE 1012,7 15 0 0,0
15.01.2018 10:00:00 4,2 0,9 3,4 0,4 2,3 7,3 11 6 29 16 S 1013,5 14 16 0,0
15.01.2018 09:00:00 3,3 0,4 1,8 0,4 2,4 7,3 15 8 26 14 SSE 1014,2 12 0 0,0
15.01.2018 08:00:00 2,3 -0,3 0,6 0,4 2,4 7,3 16 9 27 15 SSE 1015,0 12 0 0,0
15.01.2018 07:00:00 2,4 -0,6 0,6 0,4 2,5 7,3 16 9 22 12 SSE 1015,7 13 0 0,0
15.01.2018 06:00:00 2,4 -0,7 0,6 0,4 2,5 7,3 10 5 23 12 SSE 1016,1 14 0 0,0
15.01.2018 05:00:00 2,8 -1,0 1,4 0,4 2,6 7,3 16 9 24 13 SSE 1016,9 16 0 0,0
15.01.2018 04:00:00 2,8 -1,0 2,1 0,4 2,6 7,3 18 10 29 16 SSE 1017,7 16 0 0,0

tt = Température de l'air
td = dewpoint
tt 5cm = Température de l'air 5cm
tt -5cm = Température de l'air -5cm
tt -20cm = Température de l'air -20cm
tt -100cm = Température de l'air -100cm
ff = Vitesse du vent
fx = gusts
dd = Direction du vent
ppp = reduced air pressure
vv = visibility
sd = Ensoleillement
rr = Quantités de précipitations

stations d'obs. à proximité